Flag for United Kingdom Weather past 2 weeks in Huddersfield, England, United Kingdom

Now
59 °F

Passing clouds.


Feels Like: 58 °F
Forecast: 53 / 65 °F
Wind: 8 mph from Southwest

Location: Leeds And Bradford

Current Time: Aug 3, 2015 at 11:05:33 PM

Latest Report: Aug 3, 2015 at 10:20 PM


Visibility: N/A

Pressure: 29.74 "Hg

Humidity: 68%

Dew point: 48 °F

Location of HuddersfieldLocation

Historic Weather in Huddersfield — Graph

°F

Huddersfield temperature yesterday

Maximum temperature yesterday: 70 °F (at 6:20 PM)
Minimum temperature yesterday: 50 °F (at 5:50 AM)
Average temperature yesterday: 59 °F

Past Weeks' High & Low Weather Summary

 TemperatureHumidityPressure
High70 °F (Aug 2, 6:20 PM)100% (Jul 20, 3:50 AM)30.12 "Hg (Jul 20, 3:50 AM)
Low45 °F (Jul 24, 3:20 AM)52% (Aug 3, 6:20 PM)29.33 "Hg (Jul 26, 11:50 PM)
Average55 °F85%29.83 "Hg
* Reported Jul 19 9:20 PM — Aug 3 9:50 PM, Huddersfield, Weather by CustomWeather, © 2015

Note: Actual official high and low records may vary slightly from our data, if they occured in-between our weather recording intervals... More about our weather records

Advertising

Huddersfield weather history for previous 24 hours

 ConditionsComfort  
Time TempWeatherWind HumidityBarometerVisibility
9:50 PM
Mon, Aug 3
61 °FPassing clouds.8 mph68%29.74 "HgN/A
9:20 PM61 °FPassing clouds.6 mph68%29.74 "HgN/A
8:50 PM61 °FPassing clouds.9 mph68%29.74 "HgN/A
8:20 PM63 °FPassing clouds.12 mph59%29.74 "HgN/A
7:50 PM64 °FPassing clouds.10 mph60%29.74 "HgN/A
7:20 PM64 °FPassing clouds.9 mph60%29.74 "HgN/A
6:50 PM64 °FPassing clouds.12 mph60%29.74 "HgN/A
6:20 PM66 °FPassing clouds.10 mph52%29.74 "HgN/A
5:50 PM68 °FPassing clouds.14 mph53%29.74 "HgN/A
5:20 PM68 °FPassing clouds.13 mph83%29.74 "HgN/A
4:50 PM66 °FScattered clouds.15 mph88%29.74 "HgN/A
4:20 PM66 °FScattered clouds.13 mph88%29.74 "HgN/A
3:50 PM66 °FScattered clouds.13 mph88%29.74 "HgN/A
3:20 PM66 °FScattered clouds.14 mph88%29.74 "HgN/A
2:50 PM66 °FScattered clouds.13 mph88%29.77 "HgN/A
2:20 PM66 °FScattered clouds.14 mph88%29.74 "HgN/A
1:50 PM66 °FScattered clouds.14 mph88%29.74 "HgN/A
1:20 PM66 °FSprinkles. Scattered clouds.16 mph88%29.77 "HgN/A
12:50 PM70 °FScattered clouds.10 mph83%29.74 "HgN/A
12:20 PM68 °FScattered clouds.14 mph88%29.74 "HgN/A
11:50 AM68 °FScattered clouds.14 mph83%29.74 "HgN/A
11:20 AM68 °FScattered clouds.13 mph83%29.74 "HgN/A
10:50 AM68 °FScattered clouds.15 mph83%29.74 "HgN/A
10:20 AM66 °FScattered clouds.14 mph88%29.74 "HgN/A
9:50 AM64 °FScattered clouds.9 mph88%29.74 "HgN/A
9:20 AM64 °FScattered clouds.9 mph88%29.74 "HgN/A
8:50 AM64 °FPassing clouds.7 mph83%29.71 "HgN/A
8:20 AM63 °FPassing clouds.6 mph83%29.71 "HgN/A
7:50 AM59 °FPassing clouds.7 mph88%29.71 "HgN/A
7:20 AM59 °FSunny.6 mph88%29.71 "Hg10 mi
6:50 AM57 °FSunny.7 mph88%29.71 "Hg10 mi
6:20 AM55 °FClear.6 mph88%29.71 "Hg10 mi
5:50 AM54 °FClear.7 mph94%29.71 "Hg10 mi
5:20 AM55 °FClear.6 mph94%29.71 "Hg10 mi
4:50 AM57 °FPassing clouds.6 mph88%29.74 "HgN/A
4:20 AM59 °FPassing clouds.10 mph88%29.74 "HgN/A
3:50 AM59 °FClear.10 mph88%29.74 "Hg10 mi
3:20 AM59 °FClear.13 mph88%29.74 "Hg10 mi
2:50 AM61 °FClear.13 mph83%29.77 "Hg10 mi
2:20 AM61 °FClear.10 mph88%29.80 "Hg10 mi
1:50 AM61 °FPassing clouds.9 mph88%29.80 "HgN/A
1:20 AM61 °FClear.12 mph88%29.83 "Hg10 mi
12:50 AM61 °FClear.9 mph88%29.83 "Hg10 mi
12:20 AM61 °FPassing clouds.7 mph88%29.86 "HgN/A
11:50 PM
Sun, Aug 2
63 °FPassing clouds.8 mph88%29.86 "HgN/A
11:20 PM63 °FClear.12 mph88%29.83 "Hg10 mi
Weather by CustomWeather, © 2015

See weather overviewHow to use our weather pages